| time (UTC) | temp C | wind direction | speed KPH | gust KPH | rain 1hr cm | rain 24hr cm | rain mn cm | humidity % | barometer mb |
| 20260506160034 | 16 | 304 | 0.0 | 0.0 | 0.00 | 0.00 | 0.00 | 46 | 1014.1 |
| 20260506154520 | 15 | 304 | 1.6 | 0.0 | 0.00 | 0.00 | 0.00 | 48 | 1014.5 |
| 20260506153100 | 15 | 304 | 0.0 | 0.0 | 0.00 | 0.00 | 0.00 | 48 | 1014.4 |
| 20260506151608 | 14 | 304 | 0.0 | 0.0 | 0.00 | 0.00 | 0.00 | 51 | 1014.4 |
| 20260506150035 | 12 | 304 | 0.0 | 0.0 | 0.00 | 0.00 | 0.00 | 60 | 1014.6 |
| 20260506144534 | 11 | 304 | 0.0 | 0.0 | 0.00 | 0.00 | 0.00 | 66 | 1014.6 |
| 20260506143035 | 9 | 304 | 0.0 | 0.0 | 0.00 | 0.00 | 0.00 | 78 | 1014.7 |
| 20260506141517 | 7 | 304 | 0.0 | 0.0 | 0.00 | 0.00 | 0.00 | 81 | 1014.8 |
| 20260506140111 | 6 | 304 | 0.0 | 0.0 | 0.00 | 0.00 | 0.00 | 81 | 1014.9 |
| 20260506134558 | 5 | 304 | 0.0 | 0.0 | 0.00 | 0.00 | 0.00 | 82 | 1014.9 |
| 20260506133042 | 5 | 304 | 0.0 | 0.0 | 0.00 | 0.00 | 0.00 | 83 | 1014.7 |
| 20260506131538 | 5 | 304 | 0.0 | 0.0 | 0.00 | 0.00 | 0.00 | 84 | 1014.5 |
| 20260506130019 | 4 | 304 | 0.0 | 0.0 | 0.00 | 0.00 | 0.00 | 84 | 1014.5 |
| 20260506124517 | 4 | 304 | 0.0 | 0.0 | 0.00 | 0.00 | 0.00 | 84 | 1014.3 |
| 20260506123058 | 3 | 304 | 0.0 | 0.0 | 0.00 | 0.00 | 0.00 | 83 | 1014.1 |
| 20260506121556 | 3 | 304 | 0.0 | 0.0 | 0.00 | 0.00 | 0.00 | 83 | 1013.9 |
| 20260506120043 | 4 | 304 | 0.0 | 0.0 | 0.00 | 0.00 | 0.00 | 83 | 1013.8 |
| 20260506114545 | 4 | 304 | 0.0 | 0.0 | 0.00 | 0.00 | 0.00 | 82 | 1013.7 |
| 20260506113040 | 4 | 304 | 0.0 | 0.0 | 0.00 | 0.00 | 0.00 | 82 | 1013.7 |
| 20260506111540 | 4 | 304 | 0.0 | 0.0 | 0.00 | 0.00 | 0.00 | 81 | 1013.6 |
| 20260506110046 | 4 | 304 | 0.0 | 0.0 | 0.00 | 0.00 | 0.00 | 81 | 1013.6 |
| 20260506104537 | 4 | 304 | 0.0 | 0.0 | 0.00 | 0.00 | 0.00 | 81 | 1013.6 |
| 20260506103036 | 4 | 304 | 0.0 | 0.0 | 0.00 | 0.00 | 0.00 | 80 | 1013.6 |
| 20260506101548 | 5 | 304 | 0.0 | 0.0 | 0.00 | 0.00 | 0.00 | 80 | 1013.5 |
| 20260506100014 | 5 | 304 | 0.0 | 0.0 | 0.00 | 0.00 | 0.00 | 79 | 1013.3 |
| 20260506094516 | 5 | 304 | 0.0 | 0.0 | 0.00 | 0.00 | 0.00 | 78 | 1013.4 |
| 20260506093103 | 5 | 304 | 0.0 | 0.0 | 0.00 | 0.00 | 0.00 | 77 | 1013.3 |
| 20260506091553 | 5 | 304 | 0.0 | 0.0 | 0.00 | 0.00 | 0.00 | 76 | 1013.3 |
| 20260506090036 | 6 | 304 | 0.0 | 0.0 | 0.00 | 0.00 | 0.00 | 75 | 1013.2 |
| 20260506084533 | 6 | 304 | 0.0 | 0.0 | 0.00 | 0.00 | 0.00 | 78 | 1013.2 |
| 20260506083014 | 6 | 304 | 0.0 | 0.0 | 0.00 | 0.00 | 0.00 | 78 | 1013.0 |
| 20260506081512 | 5 | 304 | 0.0 | 0.0 | 0.00 | 0.00 | 0.00 | 79 | 1012.7 |
| 20260506073038 | 6 | 304 | 0.0 | 0.0 | 0.00 | 0.00 | 0.00 | 78 | 1012.8 |
| 20260506071530 | 6 | 304 | 0.0 | 0.0 | 0.00 | 0.00 | 0.00 | 76 | 1012.6 |
| 20260506061545 | 8 | 304 | 0.0 | 0.0 | 0.00 | 0.00 | 0.00 | 70 | 1012.1 |
| 20260506044535 | 10 | 304 | 0.0 | 0.0 | 0.00 | 0.00 | 0.00 | 66 | 1011.0 |
| 20260506043015 | 11 | 304 | 0.0 | 0.0 | 0.00 | 0.00 | 0.00 | 64 | 1011.0 |
| 20260506041524 | 11 | 304 | 0.0 | 0.0 | 0.00 | 0.00 | 0.00 | 61 | 1010.8 |
| 20260506040108 | 12 | 304 | 0.0 | 0.0 | 0.00 | 0.00 | 0.00 | 58 | 1010.8 |
| 20260506034548 | 13 | 304 | 0.0 | 0.0 | 0.00 | 0.00 | 0.38 | 52 | 1010.6 |
| 20260506033049 | 15 | 304 | 0.0 | 0.0 | 0.00 | 0.00 | 0.38 | 46 | 1010.4 |
| 20260506031531 | 15 | 304 | 0.0 | 0.0 | 0.00 | 0.00 | 0.38 | 44 | 1010.1 |
| 20260506030033 | 16 | 304 | 0.0 | 0.0 | 0.00 | 0.00 | 0.38 | 42 | 1009.8 |
| 20260506024513 | 17 | 304 | 0.0 | 0.0 | 0.00 | 0.00 | 0.38 | 40 | 1009.5 |
| 20260506023012 | 18 | 304 | 0.0 | 0.0 | 0.00 | 0.00 | 0.38 | 37 | 1009.4 |
| 20260506021557 | 18 | 304 | 0.0 | 0.0 | 0.00 | 0.00 | 0.38 | 36 | 1009.3 |
| 20260506020054 | 20 | 304 | 1.6 | 0.0 | 0.00 | 0.00 | 0.38 | 33 | 1009.2 |
| 20260506014545 | 20 | 304 | 3.2 | 0.0 | 0.00 | 0.00 | 0.38 | 33 | 1009.0 |
| 20260506013039 | 20 | 304 | 3.2 | 0.0 | 0.00 | 0.00 | 0.38 | 34 | 1009.0 |
| 20260506011518 | 19 | 304 | 1.6 | 0.0 | 0.00 | 0.00 | 0.38 | 37 | 1008.9 |
| 20260506010024 | 20 | 304 | 1.6 | 0.0 | 0.00 | 0.00 | 0.38 | 38 | 1008.9 |
| 20260506004600 | 20 | 304 | 1.6 | 0.0 | 0.00 | 0.00 | 0.38 | 39 | 1009.0 |
| 20260506003100 | 20 | 304 | 1.6 | 0.0 | 0.00 | 0.00 | 0.38 | 38 | 1008.9 |
| 20260506001604 | 19 | 304 | 0.0 | 0.0 | 0.00 | 0.00 | 0.38 | 39 | 1008.9 |
| 20260506000046 | 18 | 304 | 0.0 | 0.0 | 0.00 | 0.00 | 0.38 | 44 | 1009.1 |
| 20260505234524 | 19 | 304 | 0.0 | 0.0 | 0.00 | 0.00 | 0.38 | 41 | 1009.1 |
| 20260505233123 | 20 | 304 | 0.0 | 0.0 | 0.00 | 0.00 | 0.38 | 39 | 1009.2 |
| 20260505231506 | 20 | 304 | 1.6 | 0.0 | 0.00 | 0.00 | 0.38 | 36 | 1009.2 |
| 20260505230005 | 20 | 304 | 1.6 | 0.0 | 0.00 | 0.00 | 0.38 | 39 | 1009.3 |
| 20260505224549 | 20 | 304 | 3.2 | 0.0 | 0.00 | 0.00 | 0.38 | 35 | 1009.4 |
| 20260505223055 | 20 | 305 | 3.2 | 0.0 | 0.00 | 0.00 | 0.38 | 36 | 1009.5 |
| 20260505221530 | 20 | 305 | 0.0 | 0.0 | 0.00 | 0.00 | 0.38 | 38 | 1009.7 |
| 20260505220037 | 20 | 306 | 1.6 | 0.0 | 0.00 | 0.00 | 0.38 | 34 | 1009.7 |
| 20260505214516 | 20 | 306 | 4.8 | 0.0 | 0.00 | 0.00 | 0.38 | 36 | 1009.7 |
| 20260505213009 | 21 | 303 | 4.8 | 0.0 | 0.00 | 0.00 | 0.38 | 41 | 1009.8 |
| 20260505211558 | 20 | 303 | 4.8 | 0.0 | 0.00 | 0.00 | 0.38 | 37 | 1009.9 |
| 20260505210056 | 20 | 298 | 6.4 | 0.0 | 0.00 | 0.00 | 0.38 | 35 | 1010.1 |
| 20260505204536 | 20 | 335 | 6.4 | 0.0 | 0.00 | 0.00 | 0.38 | 35 | 1010.1 |
| 20260505203037 | 19 | 307 | 4.8 | 0.0 | 0.00 | 0.00 | 0.38 | 36 | 1010.1 |
| 20260505201517 | 18 | 310 | 4.8 | 0.0 | 0.00 | 0.00 | 0.38 | 39 | 1010.3 |
| 20260505200014 | 19 | 310 | 0.0 | 0.0 | 0.00 | 0.00 | 0.38 | 39 | 1010.3 |
| 20260505194558 | 18 | 310 | 0.0 | 0.0 | 0.00 | 0.00 | 0.38 | 39 | 1010.3 |
| 20260505193054 | 20 | 310 | 1.6 | 0.0 | 0.00 | 0.00 | 0.38 | 36 | 1010.4 |
| 20260505191548 | 19 | 310 | 4.8 | 0.0 | 0.00 | 0.00 | 0.38 | 37 | 1010.5 |
| 20260505190039 | 18 | 292 | 6.4 | 0.0 | 0.00 | 0.00 | 0.38 | 39 | 1010.5 |
| 20260505184521 | 19 | 319 | 4.8 | 0.0 | 0.00 | 0.00 | 0.38 | 39 | 1010.5 |
| 20260505183026 | 19 | 351 | 3.2 | 0.0 | 0.00 | 0.00 | 0.38 | 37 | 1010.5 |
| 20260505181600 | 18 | 289 | 3.2 | 0.0 | 0.00 | 0.00 | 0.38 | 42 | 1010.5 |
| 20260505180056 | 18 | 327 | 0.0 | 0.0 | 0.00 | 0.00 | 0.38 | 42 | 1010.6 |
| 20260505174541 | 18 | 321 | 1.6 | 0.0 | 0.00 | 0.00 | 0.38 | 41 | 1010.7 |
| 20260505173040 | 17 | 317 | 1.6 | 0.0 | 0.00 | 0.00 | 0.38 | 44 | 1010.7 |
| 20260505171527 | 17 | 103 | 0.0 | 0.0 | 0.00 | 0.00 | 0.38 | 43 | 1010.8 |
| 20260505170016 | 17 | 103 | 0.0 | 0.0 | 0.00 | 0.00 | 0.38 | 46 | 1010.7 |
| 20260505164555 | 16 | 113 | 1.6 | 0.0 | 0.00 | 0.00 | 0.38 | 49 | 1010.8 |
| 20260505163058 | 16 | 128 | 0.0 | 0.0 | 0.00 | 0.00 | 0.38 | 51 | 1010.7 |
| 20260505161534 | 15 | 128 | 0.0 | 0.0 | 0.00 | 0.00 | 0.38 | 54 | 1010.7 |